Volk, WI

8:05 AM CDT on October 20, 2017 (GMT -0500)
Volk

Weather History for KVOK - March, 2014

Change the Weather History Date:

Tuesday, March 18, 2014

  Actual Average Record
Temperature  
Mean Temperature 36 °F -  
Max Temperature 48 °F 39 °F 81 °F (2012)
Min Temperature 23 °F 24 °F 10 °F (2013)
Degree Days  
Heating Degree Days 30    
Moisture  
Dew Point 28 °F    
Average Humidity 78    
Maximum Humidity 100    
Minimum Humidity 50    
Precipitation  
Precipitation 0.05 in - - ()
Sea Level Pressure  
Sea Level Pressure 29.77 in    
Wind  
Wind Speed 8 mph (East)    
Max Wind Speed 13 mph    
Max Gust Speed 21 mph    
Visibility 9 miles    
Events Rain , Snow    
Averages and records for this station are not official NWS values.
T = Trace of Precipitation, MM = Missing Value Source: NWS Daily Summary

Daily Weather History Graph

Daily Weather History Graph

Search for Another Location

Airport or City:

Trip Planner

Search our weather history database for the weather conditions in past years. The results will help you decide how hot, cold, wet, or windy it might be!

Date:

Astronomy

Mar. 18, 2014 Rise Set
Actual Time 7:07 AM CDT 7:11 PM CDT
Civil Twilight 6:39 AM CDT 7:39 PM CDT
Nautical Twilight 6:05 AM CDT 8:13 PM CDT
Astronomical Twilight 5:31 AM CDT 8:47 PM CDT
Moon 9:34 PM CDT (3/18) 7:52 AM CDT (3/18)
Length of Visible Light 13h 00m
Length of Day
12h 03m
Waning Gibbous, 96% of the Moon is Illuminated
Mar 18
Waning Gibbous
Mar 23
Last Quarter
Mar 30
New
Apr 7
First Quarter
Apr 15
Full

Hourly Weather History & Observations

Time (CDT) Temp. Windchill Dew Point Humidity Pressure Visibility Wind Dir Wind Speed Gust Speed Precip Events Conditions
12:58 AM 27.5 °F 22.2 °F 20.5 °F 75% 29.79 in 10.0 mi ESE 4.6 mph - N/A   Clear
1:58 AM 25.9 °F 17.4 °F 21.0 °F 82% 29.79 in 10.0 mi East 8.1 mph - N/A   Scattered Clouds
2:58 AM 26.4 °F 18.0 °F 21.9 °F 83% 29.78 in 10.0 mi East 8.1 mph - N/A   Clear
3:58 AM 25.3 °F 17.6 °F 21.7 °F 86% 29.77 in 10.0 mi ESE 6.9 mph - N/A   Partly Cloudy
4:58 AM 23.0 °F 12.4 °F 21.2 °F 93% 29.77 in 10.0 mi East 10.4 mph - N/A   Clear
5:58 AM 24.8 °F 14.6 °F 23.4 °F 94% 29.76 in 10.0 mi ESE 10.4 mph - N/A   Clear
6:58 AM 23.9 °F 15.8 °F 22.8 °F 96% 29.78 in 10.0 mi SSE 6.9 mph - N/A   Clear
7:58 AM 26.6 °F 18.2 °F 24.8 °F 93% 29.79 in 10.0 mi SE 8.1 mph - N/A   Mostly Cloudy
8:58 AM 28.4 °F 24.6 °F 24.8 °F 86% 29.80 in 10.0 mi ESE 3.5 mph - N/A   Mostly Cloudy
9:58 AM 33.8 °F 28.6 °F 24.8 °F 70% 29.81 in 10.0 mi ESE 5.8 mph - N/A   Overcast
10:58 AM 37.4 °F 31.4 °F 26.6 °F 65% 29.81 in 10.0 mi ESE 8.1 mph - N/A   Overcast
11:58 AM 41.0 °F 34.7 °F 28.4 °F 61% 29.80 in 10.0 mi ESE 10.4 mph - N/A   Overcast
12:58 PM 42.8 °F 37.5 °F 28.4 °F 57% 29.81 in 10.0 mi ESE 9.2 mph - N/A   Overcast
1:58 PM 44.6 °F 39.2 °F 30.2 °F 57% 29.80 in 10.0 mi SE 10.4 mph - N/A   Overcast
2:58 PM 48.2 °F - 30.2 °F 50% 29.76 in 10.0 mi East 12.7 mph 20.7 mph N/A   Mostly Cloudy
3:58 PM 46.4 °F 41.5 °F 28.4 °F 50% 29.76 in 10.0 mi ESE 10.4 mph - N/A   Mostly Cloudy
4:58 PM 42.8 °F 38.0 °F 28.4 °F 57% 29.75 in 10.0 mi East 8.1 mph - N/A   Overcast
5:58 PM 42.8 °F 37.5 °F 28.4 °F 57% 29.73 in 10.0 mi East 9.2 mph - N/A   Overcast
6:58 PM 41.0 °F 34.7 °F 30.2 °F 65% 29.75 in 10.0 mi East 10.4 mph - N/A   Overcast
7:58 PM 39.2 °F 33.0 °F 30.2 °F 70% 29.79 in 10.0 mi ENE 9.2 mph - N/A   Overcast
8:58 PM 37.4 °F 29.8 °F 30.2 °F 75% 29.79 in 10.0 mi ENE 11.5 mph - N/A   Overcast
9:58 PM 37.4 °F 30.3 °F 30.2 °F 75% 29.78 in 10.0 mi ENE 10.4 mph - N/A   Overcast
10:30 PM 35.6 °F 28.0 °F 32.0 °F 87% 29.73 in 10.0 mi East 10.4 mph - N/A Rain , Snow Light Rain
10:55 PM 35.6 °F 28.6 °F 32.0 °F 87% 29.73 in 7.0 mi East 9.2 mph - N/A Snow Light Snow
10:58 PM 35.6 °F 28.0 °F 32.0 °F 87% 29.76 in 6.0 mi East 10.4 mph - N/A Snow Light Snow
11:41 PM 32.0 °F 27.5 °F 32.0 °F 100% 29.72 in 1.8 mi NE 4.6 mph - N/A Snow Light Snow
11:46 PM 32.0 °F 27.5 °F 32.0 °F 100% 29.72 in 1.5 mi ENE 4.6 mph - N/A Snow Light Snow
11:56 PM 32.0 °F 27.5 °F 32.0 °F 100% 29.72 in 1.2 mi ENE 4.6 mph - N/A Snow Light Snow
11:58 PM 32.7 °F 28.3 °F 32.7 °F 100% 29.75 in 1.2 mi NE 4.6 mph - 0.05 in Snow Light Snow